[[{"header":{"parameterUnit":"m.s-1","parameterCategory":1,"la1":30.2991,"la2":30.254,"lo1":-89.0895,"lo2":-89.0444,"dy":0.0017,"dx":0.0017,"nx":28,"ny":28,"refTime":"2025-09-02T09:00:00:Z","depth":0,"parameterNumber":2,"parameterNumberName":"U-component_of_WINDS"},"data":[0,0,0,0,0,0,0,0,0,0,0,0,0,0,0,0,0,0,0,0,0,0,0,0,0,0,0,0,0,0,0,0,0,0,0,0,0,0,0,0,0,0,0,0,0,0,0,0,0,0,0,0,0,0,0,0,0,0,-2.4217,-2.4217,0,-2.4184,-2.4183,-2.4183,-2.4096,-2.4095,-2.4093,-2.4091,-2.4059,-2.406,-2.4061,0,0,0,0,0,0,0,0,0,0,0,0,0,-2.4209,-2.421,-2.4217,-2.4217,-2.4216,-2.4184,-2.4183,-2.4183,-2.4097,-2.4095,-2.4092,-2.409,-2.4059,-2.406,-2.4061,0,0,0,0,0,0,0,0,0,0,0,0,0,-2.4198,-2.421,-2.4217,-2.4169,-2.4165,-2.4184,-2.4183,-2.4183,-2.4097,-2.4095,-2.4092,-2.4089,-2.4059,-2.406,-2.4061,-2.4125,0,0,-2.4065,-2.4066,0,0,0,0,0,0,0,0,-2.4199,-2.4199,-2.4177,-2.4173,-2.4167,-2.4141,-2.4169,-2.4163,-2.4098,-2.4123,-2.4091,-2.4088,-2.4089,-2.4088,-2.4088,-2.4123,-2.4122,-2.4065,-2.4066,-2.4067,-2.4067,0,0,0,0,0,0,0,-2.42,-2.42,-2.4204,-2.4177,-2.4171,-2.4151,-2.4146,-2.4167,-2.4122,-2.4121,-2.4114,-2.4111,-2.4086,-2.4086,-2.4086,-2.4121,-2.4065,-2.4066,-2.4067,-2.4068,-2.4209,-2.4212,0,0,0,0,0,0,-2.4207,-2.4201,-2.4205,-2.4203,-2.4177,-2.4153,-2.4148,-2.4153,-2.4121,-2.4114,-2.4114,-2.4107,-2.4086,-2.4085,-2.4085,-2.4158,-2.4067,-2.4068,-2.4069,-2.4206,-2.421,-2.4213,0,0,0,0,0,0,-2.4207,-2.4208,-2.4206,-2.42,-2.4198,-2.4156,-2.4162,-2.4153,-2.4154,-2.4116,-2.4108,-2.4122,-2.4083,-2.4083,-2.4115,-2.4155,-2.4069,-2.407,-2.4202,-2.4207,-2.4211,-2.4304,0,0,0,0,0,0,-2.4207,-2.4209,-2.4232,-2.4201,-2.4199,-2.4237,-2.4165,-2.4155,-2.4156,-2.4147,-2.4122,-2.4115,-2.4081,-2.4114,-2.4117,-2.4156,-2.4071,-2.4199,-2.4205,-2.421,-2.4297,-2.4311,-2.4323,0,0,0,0,0,-2.4207,-2.4259,-2.4233,-2.4234,-2.4226,-2.4239,-2.4238,-2.4197,-2.4159,-2.4183,-2.4159,-2.4116,-2.4151,-2.4118,-2.4121,-2.416,-2.4196,-2.4203,-2.4209,-2.4291,-2.4308,-2.4323,0,0,0,0,0,0,-2.4296,-2.4254,-2.4225,-2.4268,-2.4258,-2.4225,-2.4252,-2.4216,-2.4217,-2.4209,-2.4158,-2.4153,-2.4193,-2.418,-2.4145,-2.4221,-2.4166,-2.4174,-2.4228,-2.4244,-2.4256,-2.4259,-2.4072,0,0,0,0,0,-2.4321,-2.4334,-2.4297,-2.4339,-2.4335,-2.4295,-2.4299,-2.4268,-2.4256,-2.4251,-2.423,-2.422,-2.4229,-2.4235,-2.4241,-2.4295,-2.4289,-2.4324,-2.4336,-2.4347,-2.4354,-2.4383,-2.4398,-2.4235,-2.4235,-2.4234,0,0,-2.4371,-2.435,-2.4362,-2.4356,-2.4344,-2.436,-2.4292,-2.4311,-2.4323,-2.4254,-2.4284,-2.4268,-2.4254,-2.4298,-2.4316,-2.4288,-2.4398,-2.4356,-2.4365,-2.4366,-2.4392,-2.4407,-2.4421,-2.4239,-2.4238,-2.4238,0,0,-2.4472,-2.4457,-2.4491,-2.4481,-2.4464,-2.4437,-2.4446,-2.4418,-2.4405,-2.4433,-2.4383,-2.4397,-2.4412,-2.4405,-2.4403,-2.4503,-2.4464,-2.4506,-2.4573,-2.4602,-2.4615,-2.4626,-2.4663,-2.4676,-2.4513,-2.4514,-2.4514,0,-2.4538,-2.4559,-2.4513,-2.4536,-2.4536,-2.4474,-2.4509,-2.4501,-2.4488,-2.449,-2.4458,-2.4477,-2.4463,-2.4505,-2.453,-2.453,-2.4539,-2.4509,-2.4617,-2.4627,-2.4637,-2.4672,-2.4685,-2.4519,-2.4518,-2.4518,-2.4517,0,-2.4641,-2.4656,-2.4686,-2.4674,-2.4677,-2.4705,-2.4665,-2.4674,-2.4644,-2.4621,-2.4652,-2.4633,-2.4635,-2.4642,-2.4613,-2.4681,-2.4664,-2.4625,-2.457,-2.4659,-2.469,-2.4703,-2.4526,-2.4524,-2.4523,-2.4522,0,0,-2.4796,-2.4759,-2.4771,-2.4765,-2.4742,-2.4754,-2.4781,-2.4782,-2.4791,-2.4784,-2.4806,-2.4821,-2.4786,-2.4784,-2.4753,-2.4778,-2.486,-2.4737,-2.4736,-2.4761,-2.4935,-2.4964,-2.498,-2.4834,-2.4837,-2.4838,-2.4936,0,-2.4891,-2.4933,-2.4894,-2.4945,-2.4959,-2.4902,-2.4925,-2.4915,-2.4895,-2.4905,-2.4883,-2.4895,-2.4847,-2.4845,-2.4868,-2.4845,-2.4894,-2.4838,-2.4855,-2.4856,-2.4861,-2.4996,-2.5027,-2.5121,-2.4948,-2.495,-2.4952,0,-2.5008,-2.5006,-2.5059,-2.5034,-2.5038,-2.506,-2.5059,-2.5069,-2.5056,-2.504,-2.5039,-2.5001,-2.5027,-2.4973,-2.5009,-2.4971,-2.4976,-2.4967,-2.4969,-2.497,-2.491,-2.5001,-2.5149,-2.5164,-2.4971,-2.4969,-2.4968,0,-2.5117,-2.5128,-2.516,-2.5157,-2.5129,-2.5146,-2.5135,-2.512,-2.5124,-2.5123,-2.5125,-2.5128,-2.5129,-2.5133,-2.5098,-2.5061,-2.5138,-2.5081,-2.5126,-2.5128,-2.5145,-2.5145,-2.5297,-2.5148,-2.5148,-2.5148,-2.5147,0,-2.5228,-2.5262,-2.5209,-2.5229,-2.5267,-2.5222,-2.5261,-2.5244,-2.5231,-2.5248,-2.5199,-2.5216,-2.5169,-2.5182,-2.5154,-2.5189,-2.519,-2.5178,-2.5171,-2.5183,-2.5184,-2.5185,-2.5178,-2.5151,-2.515,-2.515,-2.5149,0,-2.5355,-2.5321,-2.5353,-2.5324,-2.5318,-2.5347,-2.5323,-2.5341,-2.5318,-2.534,-2.5343,-2.5307,-2.532,-2.5285,-2.5292,-2.5274,-2.5324,-2.5306,-2.5328,-2.5323,-2.5371,-2.5367,-2.5529,-2.5549,-2.5387,-2.5389,-2.539,0,-2.5429,-2.5454,-2.5428,-2.5435,-2.5427,-2.544,-2.5443,-2.5401,-2.5407,-2.5396,-2.5416,-2.5424,-2.5428,-2.5452,-2.5427,-2.5433,-2.5414,-2.5471,-2.5415,-2.5427,-2.5416,-2.5415,-2.5418,-2.5483,-2.5485,-2.5486,-2.5488,0,-2.5563,-2.5545,-2.5551,-2.5552,-2.5558,-2.5557,-2.5553,-2.5562,-2.5516,-2.5526,-2.5538,-2.5541,-2.5549,-2.5559,-2.5559,-2.5549,-2.5512,-2.5506,-2.5517,-2.5529,-2.5542,-2.5537,-2.536,-2.5502,-2.5501,-2.55,-2.5499,-2.5498,-2.5665,-2.5686,-2.5671,-2.568,-2.5672,-2.567,-2.5686,-2.5665,-2.5674,-2.5677,-2.5651,-2.5669,-2.5658,-2.5654,-2.5649,-2.5663,-2.5637,-2.5653,-2.5657,-2.5661,-2.567,-2.5539,-2.5663,-2.5662,-2.5662,-2.5661,-2.5661,0,-2.5797,-2.5785,-2.5794,-2.579,-2.5798,-2.5761,-2.5755,-2.5764,-2.578,-2.5772,-2.5778,-2.5793,-2.5802,-2.5779,-2.5785,-2.5801,-2.5784,-2.5804,-2.5802,-2.5801,-2.5692,-2.5682,-2.5818,-2.5818,-2.5817,-2.5817,-2.5817,-2.5817,-2.5867,-2.5899,-2.588,-2.5909,-2.5897,-2.5913,-2.5913,-2.5911,-2.5905,-2.5923,-2.5931,-2.5915,-2.5901,-2.5906,-2.5914,-2.5907,-2.5912,-2.5938,-2.5925,-2.5824,-2.5809,-2.5794,-2.5785,-2.5939,-2.5939,-2.6033,-2.6034,-2.6035]},{"header":{"parameterUnit":"m.s-1","parameterCategory":1,"la1":30.2991,"la2":30.254,"lo1":-89.0895,"lo2":-89.0444,"dy":0.0017,"dx":0.0017,"nx":28,"ny":28,"refTime":"2025-09-02T09:00:00:Z","depth":0,"parameterNumber":3,"parameterNumberName":"V-component_of_WINDS"},"data":[0,0,0,0,0,0,0,0,0,0,0,0,0,0,0,0,0,0,0,0,0,0,0,0,0,0,0,0,0,0,0,0,0,0,0,0,0,0,0,0,0,0,0,0,0,0,0,0,0,0,0,0,0,0,0,0,0,0,1.1397,1.1396,0,1.1371,1.137,1.137,1.14,1.1401,1.1403,1.1404,1.1372,1.137,1.1368,0,0,0,0,0,0,0,0,0,0,0,0,0,1.1468,1.1467,1.1397,1.1396,1.1396,1.1371,1.137,1.137,1.14,1.1402,1.1403,1.1404,1.1373,1.137,1.1368,0,0,0,0,0,0,0,0,0,0,0,0,0,1.1439,1.1466,1.1397,1.1408,1.1409,1.1371,1.137,1.137,1.14,1.1402,1.1403,1.1405,1.1373,1.1371,1.1368,1.1316,0,0,1.1359,1.1358,0,0,0,0,0,0,0,0,1.1441,1.1436,1.1407,1.1407,1.1408,1.1391,1.1384,1.1352,1.1399,1.1403,1.1404,1.1406,1.1377,1.1374,1.1365,1.1314,1.1313,1.1359,1.1357,1.1356,1.1355,0,0,0,0,0,0,0,1.1443,1.1438,1.1386,1.1406,1.1407,1.1413,1.1411,1.1378,1.138,1.1403,1.1405,1.1402,1.1377,1.1367,1.1364,1.1312,1.1359,1.1356,1.1355,1.1354,1.1217,1.1215,0,0,0,0,0,0,1.1444,1.1439,1.1387,1.1386,1.1429,1.1411,1.1408,1.1394,1.1381,1.1381,1.14,1.1403,1.1371,1.1368,1.1363,1.13,1.1356,1.1353,1.1352,1.1219,1.1217,1.1215,0,0,0,0,0,0,1.1445,1.1439,1.1388,1.1413,1.1407,1.1408,1.1392,1.1393,1.1383,1.1379,1.1379,1.139,1.1373,1.1367,1.1327,1.1299,1.1352,1.1349,1.1221,1.1218,1.1216,1.1174,0,0,0,0,0,0,1.1447,1.1439,1.142,1.1412,1.1406,1.1354,1.139,1.1391,1.1379,1.1382,1.1369,1.1369,1.1374,1.1332,1.1325,1.1296,1.1347,1.1224,1.122,1.1216,1.1178,1.117,1.1163,0,0,0,0,0,1.145,1.1409,1.1419,1.1413,1.1382,1.1352,1.1348,1.1356,1.1377,1.1357,1.1354,1.1369,1.1304,1.1327,1.132,1.129,1.1225,1.1221,1.1217,1.1181,1.1172,1.1164,0,0,0,0,0,0,1.1412,1.1408,1.1419,1.1375,1.1364,1.1357,1.1333,1.1346,1.1327,1.1331,1.134,1.1337,1.1294,1.1289,1.1314,1.1239,1.1268,1.1262,1.1243,1.1234,1.1227,1.1228,1.1345,0,0,0,0,0,1.1399,1.1376,1.1374,1.1335,1.1329,1.1332,1.1319,1.1326,1.1314,1.1309,1.1304,1.129,1.1267,1.1251,1.1229,1.1178,1.1175,1.1154,1.1147,1.1141,1.1135,1.1106,1.1097,1.12,1.12,1.1201,0,0,1.137,1.1366,1.135,1.1327,1.1319,1.1294,1.1327,1.1299,1.128,1.1304,1.1266,1.1262,1.1248,1.1202,1.1181,1.1196,1.1106,1.1136,1.1131,1.1128,1.1101,1.1091,1.1082,1.1197,1.1198,1.1198,0,0,1.1305,1.1301,1.1267,1.1259,1.1247,1.125,1.1242,1.1234,1.1232,1.1195,1.1212,1.1189,1.1149,1.1138,1.1127,1.1059,1.1071,1.1052,1.1013,1.0985,1.0977,1.0969,1.0943,1.0934,1.1046,1.1046,1.1046,0,1.1271,1.1235,1.1248,1.1219,1.1207,1.123,1.1195,1.1186,1.1167,1.1158,1.1176,1.1125,1.1117,1.1069,1.1052,1.1044,1.1033,1.1052,1.0977,1.097,1.0963,1.0938,1.0929,1.1044,1.1044,1.1044,1.1044,0,1.1192,1.1168,1.1142,1.1124,1.111,1.1079,1.1085,1.1069,1.1078,1.1078,1.1039,1.1031,1.1007,1.0997,1.1005,1.0949,1.0958,1.0976,1.1005,1.0951,1.0927,1.0918,1.104,1.1041,1.1042,1.1042,0,0,1.11,1.1092,1.1082,1.1074,1.1064,1.1044,1.1013,1.0992,1.0977,1.0964,1.0937,1.0903,1.092,1.0907,1.0914,1.089,1.0835,1.0911,1.0911,1.0895,1.0771,1.0755,1.0744,1.0845,1.0843,1.0842,1.0771,0,1.1034,1.0981,1.0992,1.094,1.0916,1.0938,1.0911,1.0901,1.0901,1.0879,1.0879,1.0854,1.0879,1.0872,1.0849,1.0846,1.0809,1.0852,1.0817,1.0815,1.0817,1.0732,1.0716,1.0649,1.0762,1.0761,1.076,0,1.0948,1.0933,1.0879,1.0872,1.0863,1.0838,1.0819,1.08,1.0789,1.079,1.0777,1.0789,1.0756,1.0789,1.0743,1.0772,1.0758,1.0755,1.0753,1.0747,1.0782,1.0722,1.0629,1.0618,1.0746,1.0747,1.0748,0,1.0883,1.085,1.0813,1.0806,1.0798,1.078,1.0775,1.0766,1.0753,1.0736,1.0727,1.0707,1.0695,1.0678,1.0684,1.0707,1.0636,1.0669,1.0635,1.0634,1.0616,1.0616,1.0517,1.0612,1.0612,1.0612,1.0613,0,1.0806,1.0771,1.0784,1.076,1.0722,1.0735,1.0696,1.0694,1.0686,1.0662,1.068,1.0657,1.0667,1.0644,1.0648,1.0609,1.0604,1.0602,1.0603,1.0599,1.0599,1.0588,1.0592,1.061,1.061,1.0611,1.0611,0,1.0726,1.0733,1.0694,1.069,1.0689,1.066,1.0656,1.0634,1.0637,1.0606,1.0599,1.0602,1.0576,1.0581,1.0551,1.0554,1.0504,1.0512,1.0508,1.0509,1.0473,1.0475,1.036,1.0345,1.0453,1.0452,1.0451,0,1.0675,1.0649,1.0643,1.0629,1.0623,1.06,1.0587,1.0599,1.0584,1.057,1.0549,1.0525,1.0506,1.0463,1.0461,1.0439,1.0445,1.0407,1.0441,1.0438,1.0441,1.0442,1.0438,1.0398,1.0397,1.0396,1.0395,0,1.0582,1.0587,1.0568,1.0551,1.0535,1.0521,1.0509,1.0496,1.0507,1.0489,1.0463,1.0449,1.042,1.0395,1.0375,1.0369,1.0382,1.0385,1.0375,1.0369,1.0367,1.0365,1.0486,1.0387,1.0388,1.0388,1.0389,1.0389,1.0513,1.0491,1.0483,1.0461,1.0454,1.0442,1.0421,1.0422,1.0401,1.0379,1.0388,1.0358,1.0347,1.0321,1.0313,1.0289,1.0303,1.0289,1.0285,1.0281,1.0276,1.0373,1.0285,1.0286,1.0286,1.0286,1.0286,0,1.0419,1.0416,1.0396,1.0379,1.0362,1.038,1.0368,1.0351,1.0325,1.0315,1.0297,1.0267,1.0243,1.0241,1.0218,1.0199,1.0205,1.0192,1.0192,1.019,1.0266,1.0275,1.0188,1.0188,1.0188,1.0188,1.0188,1.0188,1.0368,1.0331,1.0335,1.0294,1.0291,1.0263,1.0254,1.0243,1.0235,1.0201,1.0182,1.0182,1.0174,1.0151,1.013,1.013,1.0119,1.0104,1.0105,1.0175,1.0185,1.0194,1.0203,1.0102,1.0102,1.0032,1.0031,1.003]}]]